TimeCDT,TemperatureF,Dew PointF,Humidity,Sea Level PressureIn,VisibilityMPH,Wind Direction,Wind SpeedMPH,Gust SpeedMPH,PrecipitationIn,Events,Conditions,WindDirDegrees,DateUTC
12:48 AM,75.2,73.4,94,29.81,7.0,North,5.8,-,N/A,,Clear,350,2012-10-17 05:48:00
1:45 AM,75.2,73.4,94,29.82,7.0,NNW,5.8,-,N/A,,Clear,340,2012-10-17 06:45:00
2:42 AM,75.2,73.4,94,29.82,7.0,NNW,5.8,-,N/A,,Clear,340,2012-10-17 07:42:00
3:42 AM,75.2,73.4,94,29.84,7.0,NNW,4.6,-,N/A,,Clear,340,2012-10-17 08:42:00
4:46 AM,75.2,73.4,94,29.82,7.0,NNW,6.9,-,N/A,,Clear,330,2012-10-17 09:46:00
5:49 AM,73.4,73.4,100,29.83,7.0,North,4.6,-,N/A,,Clear,360,2012-10-17 10:49:00
6:47 AM,73.4,73.4,100,29.82,7.0,North,3.5,-,N/A,,Scattered Clouds,350,2012-10-17 11:47:00
7:40 AM,75.2,73.4,94,29.87,8.0,NNW,9.2,-,N/A,,Scattered Clouds,330,2012-10-17 12:40:00
8:41 AM,77.0,73.4,89,29.88,8.0,NNW,9.2,-,N/A,,Scattered Clouds,340,2012-10-17 13:41:00
9:40 AM,78.8,73.4,83,29.91,8.0,NNW,6.9,-,N/A,,Scattered Clouds,330,2012-10-17 14:40:00
10:43 AM,80.6,73.4,79,29.88,8.0,North,6.9,-,N/A,,Scattered Clouds,350,2012-10-17 15:43:00
11:42 AM,82.4,73.4,74,29.88,8.0,North,5.8,-,N/A,,Mostly Cloudy,10,2012-10-17 16:42:00
12:48 PM,82.4,73.4,74,29.83,8.0,North,6.9,-,N/A,,Mostly Cloudy,360,2012-10-17 17:48:00
1:44 PM,84.2,68.0,58,29.82,8.0,Calm,Calm,-,N/A,,Mostly Cloudy,0,2012-10-17 18:44:00
2:41 PM,84.2,69.8,62,29.80,8.0,Calm,Calm,-,N/A,,Mostly Cloudy,0,2012-10-17 19:41:00
3:48 PM,84.2,71.6,66,29.81,8.0,WNW,4.6,-,N/A,,Mostly Cloudy,300,2012-10-17 20:48:00
4:44 PM,82.4,71.6,70,29.79,8.0,Calm,Calm,-,N/A,,Mostly Cloudy,0,2012-10-17 21:44:00
5:43 PM,78.8,71.6,78,29.79,8.0,East,3.5,-,N/A,,Scattered Clouds,100,2012-10-17 22:43:00
6:50 PM,75.2,71.6,89,29.78,8.0,Calm,Calm,-,N/A,,Scattered Clouds,0,2012-10-17 23:50:00
7:50 PM,73.4,71.6,94,29.83,7.0,Calm,Calm,-,N/A,,Scattered Clouds,0,2012-10-18 00:50:00
8:48 PM,71.6,71.6,100,29.85,7.0,Calm,Calm,-,N/A,,Partly Cloudy,0,2012-10-18 01:48:00
9:53 PM,71.6,71.6,100,29.90,7.0,Calm,Calm,-,N/A,,Scattered Clouds,0,2012-10-18 02:53:00
11:04 PM,71.6,71.6,100,29.87,7.0,Calm,Calm,-,N/A,,Scattered Clouds,0,2012-10-18 04:04:00
11:51 PM,71.6,71.6,100,29.86,7.0,Calm,Calm,-,N/A,,Scattered Clouds,0,2012-10-18 04:51:00